sat.trackr.live / text

‹ back to catalog

STARLINK-2523

NORAD 48306 · 2021-036AG

PAYLOAD ACTIVE UNKNOWN

§ Identity

Operator
Country
US
Launch date
2021-04-29
Launch site
AFETR
Launch vehicle
Mass (kg)
RCS (m²)

Purposes: comms

External: N2YO · Heavens-Above · Gunter

§ Orbital elements

Epoch: 2026-09-14T12:41:50.472960Z

Period
94.01 min
Inclination
53.1588°
Eccentricity
0.0000735
Mean motion
15.31702951 rev/d
Perigee alt
470.2 km
Apogee alt
471.2 km
Semi-major
6,848.9 km
B*
2.4515e-5
RAAN
300.2096°
Arg perigee
28.7998°
Mean anomaly
331.3044°
Rev number
29,699

§ Raw data

STARLINK-25231 48306U 21036AG  26257.52905640  .00000396  00000+0  24515-4 0  99942 48306  53.1588 300.2096 0000735  28.7998 331.3044 15.31702951296998

JSON: /api/v1/satellites/48306 · /tle

For live sub-satellite position, see the globe view (requires WebGL).

§ Visibility from observer

Set your observer location to see the next 7 days of passes ≥ 10°. The values pass through the URL so the page stays shareable.

No JS? Fill the form by hand. The geolocation button needs JavaScript.